GEFSSGP_500_meanwind_114.txt.gz
Wind_Speed
9 8 8 6 5 5 6 4 9 11 10 10 9 9 11 12 12 10 10 10 9 9 8 8 7 6 5 5 4 3 2 2 1 1 0 1 2 2 2 3 3 2 2 2 2 2 2 2 2
8 8 7 6 5 9 7 5 11 12 13 11 10 10 11 12 12 11 11 12 10 10 9 9 8 7 6 6 5 4 3 3 2 1 1 1 1 2 2 3 3 2 2 2 2 1 1 1 1
8 7 6 4 4 6 8 10 15 14 13 11 11 11 12 11 12 12 12 12 11 11 10 9 9 8 7 7 6 5 4 3 3 2 2 1 1 2 2 3 3 3 3 3 2 2 1 1 1
8 7 5 4 4 4 10 14 15 13 12 12 13 13 11 11 12 13 12 12 12 12 11 11 10 9 8 7 7 6 6 5 4 3 3 2 2 2 3 3 3 3 3 3 3 3 3 3 3
7 5 4 5 6 8 14 16 13 13 14 14 15 14 12 11 12 12 13 14 14 13 12 11 11 10 9 8 8 7 7 6 5 5 4 4 3 3 3 3 4 4 4 4 4 3 4 4 4
5 3 6 8 7 12 17 17 13 14 14 15 16 16 13 12 13 13 14 15 15 13 13 12 11 11 10 9 9 8 8 7 7 6 5 5 5 4 4 4 4 4 4 4 4 4 4 5 5
5 3 4 6 9 13 18 17 14 15 16 16 17 18 16 14 14 14 15 16 16 15 14 14 13 12 11 10 10 10 9 9 8 8 7 6 5 6 5 5 5 5 6 6 6 6 6 6 6
4 3 4 3 8 12 18 18 16 15 17 16 18 20 19 14 15 15 16 17 17 17 16 15 15 14 13 12 11 11 11 10 10 9 8 7 6 6 6 5 5 5 6 6 7 7 7 7 7
3 3 4 4 8 11 16 17 16 17 18 17 19 20 19 15 15 16 17 18 18 18 18 17 16 15 15 14 12 12 12 12 11 10 8 7 7 6 7 6 6 6 6 6 6 7 7 8 8
2 1 4 11 13 13 15 16 16 17 18 20 18 19 16 15 16 17 17 19 20 19 19 18 17 17 16 15 15 13 13 12 12 11 10 8 7 7 7 6 5 5 6 6 6 6 6 6 7
4 4 8 11 12 13 14 14 16 17 20 20 19 20 16 15 17 18 18 19 21 21 21 20 20 20 18 17 16 15 14 14 13 11 9 8 7 7 7 6 5 5 5 5 6 6 6 6 6
8 7 10 11 12 12 14 15 16 17 20 20 20 21 19 19 19 20 21 21 22 23 23 22 21 20 19 18 18 17 15 14 12 10 9 7 7 6 6 5 5 5 5 5 5 5 5 5 6
9 9 11 12 13 15 16 17 18 18 19 20 20 22 21 22 22 22 23 23 24 24 24 23 22 21 20 19 18 17 16 14 12 10 9 8 8 6 5 5 4 4 4 5 4 4 5 4 5
7 9 10 12 14 17 19 20 20 19 19 20 20 21 21 21 23 23 23 23 24 24 24 22 22 22 21 20 18 17 16 14 12 11 9 8 7 6 6 5 4 4 5 5 5 5 4 4 4
7 10 11 13 15 19 21 21 21 20 19 19 18 18 18 18 20 21 23 23 24 24 24 24 24 23 22 21 19 18 16 15 12 11 10 9 8 7 5 4 4 5 5 5 5 5 4 4 5
7 11 15 15 16 19 21 21 21 20 20 19 16 15 15 15 16 18 20 22 23 25 25 25 25 24 22 20 19 18 17 15 13 11 10 9 8 6 5 4 4 4 4 5 5 5 5 5 5
10 13 15 15 17 20 21 20 21 19 19 17 16 15 13 13 14 16 18 19 21 23 24 24 24 23 20 19 19 17 16 15 13 11 9 8 7 6 5 3 3 4 4 5 5 5 5 5 5
10 12 14 16 19 20 21 19 19 18 19 17 16 14 13 12 12 15 17 19 20 20 21 21 22 21 20 18 17 15 14 14 12 11 9 7 6 5 4 3 3 4 4 4 4 5 5 5 5
9 10 14 16 16 18 19 18 18 18 17 16 16 14 13 10 10 12 15 17 18 19 19 19 19 18 17 18 17 15 14 13 11 10 8 7 6 5 4 4 3 3 3 4 4 5 5 6 6
10 12 15 16 16 16 16 15 15 16 16 17 16 15 13 9 9 9 11 14 15 16 17 18 18 17 17 17 17 15 14 11 9 8 7 7 6 5 4 3 3 3 3 3 4 5 6 6 7
12 14 14 15 16 14 14 15 15 16 15 16 16 14 11 8 7 6 9 12 13 14 14 15 16 16 16 16 16 14 12 10 9 8 8 7 6 5 4 3 3 3 3 3 4 5 6 7 8
14 14 14 14 13 13 13 14 14 17 15 15 15 13 12 8 6 4 6 8 10 12 13 13 14 15 15 14 13 12 11 10 9 9 8 7 6 6 4 3 3 2 2 3 4 5 6 7 8
15 13 13 11 13 14 11 11 12 16 16 14 14 13 11 9 6 3 2 6 8 10 11 12 12 13 13 13 13 12 11 10 10 9 8 8 7 5 4 3 3 3 3 4 5 6 7 8 9
14 12 11 13 15 16 7 8 11 15 15 13 13 11 11 9 7 4 0 5 7 8 10 10 11 11 11 11 11 11 10 10 10 9 9 8 7 6 5 5 4 4 4 5 6 7 8 9 10
13 12 12 15 17 12 4 5 10 13 13 13 12 11 10 9 8 5 3 4 7 7 8 9 10 10 9 10 10 11 11 10 10 10 9 9 8 7 7 6 6 6 6 7 8 9 10 11 12
14 13 13 17 16 16 11 9 8 10 11 11 11 9 8 7 6 5 3 1 5 6 8 9 9 9 10 10 10 11 12 11 10 10 9 9 9 8 8 8 8 8 9 9 10 11 12 13 14
15 14 13 16 15 16 16 10 6 8 11 10 10 9 8 6 5 5 4 2 2 4 6 7 8 9 10 11 11 11 12 11 10 10 10 10 10 10 10 10 10 11 11 12 13 14 15 16 17
16 16 15 15 15 15 14 12 11 8 8 11 12 10 8 6 4 3 2 1 1 2 3 6 7 9 10 11 11 11 11 11 11 12 12 12 12 12 13 13 13 14 15 16 16 17 18 18 19
17 17 17 15 15 15 16 18 15 11 9 10 12 11 9 7 5 4 4 3 3 3 4 5 6 8 9 10 11 11 12 12 12 12 13 13 14 15 15 16 16 17 18 19 19 20 21 21 22
20 18 18 18 16 15 14 18 13 9 10 12 13 12 10 9 8 7 6 6 5 5 5 6 7 8 9 11 12 13 13 13 14 14 15 16 17 17 18 19 19 20 21 22 22 23 24 25 25

GEFSSGP_500_meanwind_120.txt.gz
Wind_Speed
8 7 6 5 4 4 4 3 6 8 10 12 11 12 12 9 7 6 7 7 7 7 6 6 6 5 4 3 2 1 1 1 1 2 2 2 2 2 2 2 3 3 3 3 3 2 2 2 2
8 7 6 5 4 5 5 5 8 11 12 14 14 13 12 10 7 6 8 8 9 8 8 7 7 6 5 4 3 2 1 1 1 1 2 2 2 2 2 3 3 3 3 3 3 3 2 2 2
8 7 5 3 3 5 5 7 10 14 16 17 16 14 12 9 8 8 8 9 10 9 9 9 8 7 6 5 5 4 3 2 2 2 2 2 2 2 3 3 3 3 4 4 3 3 3 3 3
7 6 4 3 4 5 6 9 12 16 19 19 18 17 13 10 10 10 10 10 10 10 11 10 9 8 8 7 6 5 4 3 3 3 3 3 3 3 3 3 4 4 4 4 3 3 3 3 3
6 5 3 4 6 6 6 10 14 18 20 21 21 19 16 12 9 11 11 10 10 11 12 12 11 10 9 8 8 7 5 4 4 4 4 4 4 4 4 4 4 4 4 4 4 4 4 4 4
5 4 3 5 6 7 8 11 15 19 22 23 22 20 14 13 11 10 11 11 11 12 13 13 12 11 10 9 9 8 6 5 5 5 5 5 5 5 5 5 5 5 5 5 5 5 5 5 4
5 5 7 7 6 7 10 13 17 20 22 23 22 19 16 14 13 11 11 11 13 14 14 15 13 13 11 10 10 9 8 7 6 6 5 5 6 6 6 5 5 5 5 6 6 6 5 5 5
6 8 9 8 7 8 11 15 18 20 22 23 22 19 16 15 13 12 13 12 13 15 16 16 15 14 12 11 10 9 9 8 7 7 6 6 6 6 6 6 6 5 6 6 6 6 6 6 5
8 9 9 8 7 8 12 16 19 21 22 23 21 18 16 14 12 13 13 15 14 15 15 16 16 15 13 12 11 10 9 9 8 8 7 7 7 7 7 6 6 6 6 6 6 6 6 6 6
8 9 9 8 8 9 12 16 20 22 23 21 20 17 16 15 14 14 13 14 15 15 16 17 17 16 15 13 12 12 10 9 8 8 8 8 7 7 7 7 6 6 6 6 6 6 6 6 6
9 9 9 9 8 9 13 16 20 22 21 20 19 18 16 15 15 14 14 14 15 16 17 18 18 17 16 15 14 13 11 10 9 9 9 8 7 7 6 6 6 6 5 6 6 6 6 6 5
11 10 9 8 8 10 12 15 17 19 18 19 20 19 18 16 16 16 15 15 16 17 18 20 19 18 18 17 16 15 12 11 10 10 9 8 7 6 6 5 5 5 5 5 5 6 6 5 4
11 9 8 8 8 10 12 14 16 17 17 18 20 20 18 17 17 16 15 16 18 18 19 20 20 20 18 18 17 15 13 12 11 11 10 8 7 7 6 5 5 4 4 4 4 5 4 4 4
10 8 7 6 8 10 12 14 16 17 18 18 19 19 17 16 15 14 16 16 17 19 21 21 20 21 20 19 17 15 14 12 11 11 10 9 8 7 6 6 5 4 3 3 3 3 3 3 3
9 7 7 6 8 9 12 13 15 17 19 19 19 18 17 15 15 14 14 17 17 19 20 21 20 20 21 19 18 16 15 13 13 11 10 10 9 8 7 6 5 4 3 2 2 2 2 3 3
9 7 6 7 9 11 13 14 16 18 20 19 18 18 16 14 15 14 14 14 16 18 19 20 20 19 19 19 19 18 17 14 13 12 12 10 9 8 7 6 5 4 3 2 1 2 2 2 2
9 7 7 8 9 12 14 15 17 18 19 20 18 18 16 13 13 12 12 12 14 17 18 19 20 20 19 20 20 20 17 15 15 13 12 10 9 8 7 7 6 4 3 2 1 0 0 1 1
8 7 7 10 12 14 15 16 17 17 18 19 19 18 15 12 11 11 11 11 13 17 19 20 21 20 19 19 19 18 16 15 15 14 13 11 10 9 8 8 7 5 4 2 2 1 1 1 2
10 8 8 11 13 15 16 17 16 15 16 18 17 17 14 11 9 9 8 9 11 14 17 18 19 20 19 18 19 17 15 15 15 15 13 12 11 10 9 8 7 6 5 4 3 2 1 1 2
10 8 9 12 14 16 17 16 15 14 15 16 15 14 12 10 8 6 6 8 10 11 14 16 17 18 17 18 18 17 16 15 16 15 14 13 12 11 10 8 8 7 6 5 3 3 2 2 2
10 9 11 13 15 17 17 16 15 14 15 13 12 11 11 9 6 4 5 6 7 9 13 14 15 17 17 17 18 17 17 16 16 15 14 13 12 11 10 9 8 7 6 5 4 3 2 2 2
10 10 12 14 17 18 18 18 15 15 12 11 9 9 9 9 7 4 3 3 5 8 11 12 14 15 17 16 16 17 18 18 17 15 15 14 12 12 11 10 9 8 6 5 4 3 3 2 1
12 11 13 14 16 18 18 18 13 12 10 8 7 7 7 8 8 6 3 1 4 8 10 12 13 15 16 16 16 17 19 19 17 16 15 14 13 13 11 11 10 8 7 6 5 4 3 1 0
12 13 15 16 16 17 17 16 13 11 8 4 5 5 6 7 7 6 4 2 4 8 10 11 13 15 15 16 17 17 19 18 17 16 14 14 14 13 12 11 10 9 8 7 6 4 4 3 2
13 15 16 17 17 17 16 14 10 9 7 4 4 5 5 6 6 7 5 4 5 7 9 11 13 14 15 16 16 17 18 17 17 16 15 14 14 13 13 11 10 10 9 8 7 6 6 5 5
15 16 19 19 17 16 14 13 10 9 6 4 3 3 4 5 5 6 6 5 5 6 8 9 11 13 15 15 15 16 16 16 16 15 15 14 14 14 13 12 11 10 10 9 8 8 8 8 8
16 19 19 20 19 18 16 13 11 9 6 5 3 1 2 3 4 5 6 5 4 6 7 9 9 12 13 14 15 15 15 16 16 15 15 15 15 15 14 13 12 12 11 11 11 11 10 10 10
19 19 21 22 20 19 16 14 12 9 6 4 2 1 1 2 3 3 4 4 5 5 6 8 9 10 12 13 14 14 14 15 15 15 15 15 15 15 15 14 14 14 13 13 13 13 13 13 13
20 20 21 22 22 20 18 14 12 10 7 6 3 1 1 1 1 1 1 2 4 4 5 7 8 9 11 12 13 13 14 15 15 15 15 15 15 15 16 16 16 16 16 16 16 16 16 16 16
23 23 23 22 21 20 19 16 14 12 10 8 5 3 3 2 1 1 2 2 3 4 5 6 8 9 10 11 12 13 14 15 15 16 16 16 17 17 18 18 18 19 19 19 19 19 19 19 19

GEFSSGP_500_meanwind_126.txt.gz
Wind_Speed
11 10 9 9 8 8 8 7 7 7 9 10 10 10 8 6 5 4 3 4 6 7 7 6 6 5 6 6 7 7 6 6 6 5 5 5 5 5 5 6 6 7 7 7 6 6 6 6 5
11 10 9 9 8 8 8 8 7 7 9 10 11 10 9 8 6 4 5 5 7 8 8 8 7 6 6 6 6 6 6 5 4 4 4 4 5 5 5 6 6 7 7 7 6 6 5 5 5
11 10 9 9 8 8 9 9 9 8 9 11 12 12 11 10 8 6 6 7 8 9 9 9 9 7 6 6 6 6 5 4 3 3 4 4 4 5 6 6 6 6 7 7 6 5 5 4 4
11 10 9 9 9 9 9 9 9 8 10 11 12 13 12 11 10 8 7 8 9 10 11 11 10 9 8 7 6 5 4 3 2 2 3 3 4 5 6 6 6 6 6 6 6 6 5 4 4
11 10 9 9 9 9 9 9 9 10 11 12 13 14 13 12 11 9 9 9 10 11 11 12 11 10 9 8 6 5 4 3 2 1 2 3 4 5 5 6 6 6 6 6 6 6 5 4 3
11 11 11 11 11 10 11 10 9 11 12 14 15 15 14 13 10 10 9 10 11 12 13 13 12 11 10 8 7 6 5 3 2 0 1 3 4 5 5 5 5 5 5 6 6 5 5 4 4
12 12 11 11 11 11 11 10 10 12 13 15 16 15 14 12 11 10 9 11 12 13 15 15 14 13 11 10 8 7 6 5 3 2 1 3 4 5 5 5 5 5 5 5 5 5 5 4 4
13 13 13 12 12 12 12 11 12 13 14 16 17 16 14 13 12 11 9 10 12 12 15 16 15 15 13 11 10 8 7 6 4 3 3 3 4 4 5 5 5 5 5 5 5 4 4 4 4
14 14 14 13 13 13 13 13 13 14 15 16 16 16 14 13 12 11 10 10 12 13 15 17 17 16 14 13 11 10 9 7 6 5 5 4 4 4 4 4 4 5 5 5 5 4 4 4 4
14 15 14 14 14 14 14 14 15 15 16 16 16 17 15 14 13 12 10 11 12 14 15 17 18 17 16 14 13 12 11 9 7 6 6 5 5 5 4 4 4 5 4 4 4 4 4 4 3
14 14 14 14 14 14 14 14 14 15 16 16 17 17 16 15 13 12 12 12 13 15 15 18 20 19 18 16 15 14 12 10 9 7 6 5 5 5 5 5 4 4 3 3 4 4 4 3 2
14 14 14 14 15 14 13 13 13 14 15 16 16 17 16 15 14 12 12 12 12 13 15 18 20 20 19 19 17 16 14 13 11 9 8 6 5 5 5 5 4 4 3 4 4 4 4 3 2
13 13 13 14 15 14 14 13 14 14 15 16 16 16 15 15 13 13 12 12 13 14 14 16 20 21 21 20 19 18 16 14 13 11 10 8 7 6 6 5 5 4 4 4 4 3 3 2 2
12 12 12 14 15 14 14 13 13 14 16 17 17 16 15 14 13 13 13 12 13 13 15 16 20 22 21 20 20 20 18 16 14 12 11 10 8 8 7 6 5 5 4 4 3 3 2 2 2
13 12 12 14 14 15 14 13 13 14 16 17 18 16 16 14 14 14 13 13 14 14 15 17 20 22 22 21 21 21 19 17 15 13 12 11 10 9 8 7 6 5 4 4 3 2 2 2 2
14 13 13 14 14 14 14 13 13 15 15 17 17 17 16 14 14 13 13 13 14 16 17 20 22 22 23 23 22 22 20 18 16 15 13 13 12 10 9 8 7 5 4 4 3 2 2 1 1
16 15 14 14 14 14 14 13 14 14 15 16 17 16 16 15 14 13 12 13 14 17 18 20 23 22 23 24 23 22 21 20 18 16 15 14 13 11 9 8 7 6 5 4 4 3 1 0 1
16 16 15 15 15 14 14 13 14 14 15 16 16 16 15 15 13 12 11 12 13 15 18 20 23 23 23 24 24 23 22 21 19 17 17 16 15 13 11 10 8 6 6 5 4 3 2 1 0
17 17 16 15 16 15 15 14 14 15 16 17 17 16 15 14 12 11 9 10 11 14 17 21 23 23 23 23 23 23 22 21 20 20 18 16 15 14 12 11 9 8 7 5 4 3 2 2 1
18 17 17 16 16 16 15 15 15 15 16 17 16 15 15 14 12 11 9 10 11 12 15 19 22 22 22 23 24 24 23 21 21 21 20 17 16 15 14 12 11 9 7 6 5 4 3 2 1
19 18 18 17 16 16 16 14 14 14 14 15 15 15 14 12 11 9 8 7 8 11 14 16 20 22 22 23 24 24 24 23 23 22 20 18 17 16 15 14 12 11 9 8 6 5 4 3 3
19 19 19 18 17 16 16 14 12 13 13 14 14 13 13 10 9 8 7 6 7 9 13 15 19 21 22 23 24 24 24 22 22 22 21 19 18 17 16 15 14 12 10 9 7 6 5 5 4
20 20 20 18 17 16 15 14 11 11 12 13 14 12 11 9 7 7 6 6 5 7 11 14 16 20 22 23 23 23 23 23 22 23 22 21 19 18 17 16 15 13 12 11 9 8 7 6 6
20 21 20 19 18 15 14 13 10 11 11 12 13 12 10 9 8 7 6 5 4 6 9 13 15 18 21 22 22 22 23 22 21 23 22 21 19 18 17 16 15 14 13 12 11 10 9 8 8
21 21 21 19 17 15 13 13 11 11 11 11 11 10 9 9 8 8 6 5 4 4 8 12 15 17 20 22 23 23 22 21 21 22 22 21 20 19 18 18 16 15 15 14 13 12 11 10 10
21 21 21 21 19 16 14 12 10 10 10 10 10 9 8 8 8 7 6 5 3 3 6 11 14 18 19 20 22 23 22 22 22 23 22 21 21 20 19 18 17 17 16 15 15 14 13 13 12
22 21 21 22 20 17 14 11 10 10 10 10 9 8 7 7 7 6 5 4 3 3 5 9 12 16 18 19 21 22 22 22 22 23 22 22 21 20 20 19 18 18 18 17 17 16 16 15 15
22 22 22 22 21 18 14 12 11 10 10 9 8 7 6 6 5 4 4 3 2 3 5 7 10 14 16 17 19 20 21 21 22 22 22 21 21 21 21 20 19 19 19 19 19 18 18 18 18
23 24 24 23 22 20 17 12 11 10 9 9 9 8 8 7 5 4 3 3 2 2 4 6 9 12 14 15 17 18 19 19 20 21 22 21 20 21 21 20 20 20 20 20 21 20 21 21 21
25 26 25 24 23 21 18 13 11 11 10 9 9 9 9 8 7 6 5 4 4 4 5 6 8 10 12 14 15 16 19 19 19 20 20 20 20 20 21 21 21 22 22 22 22 23 23 23 23

GEFSSGP_500_meanwind_132.txt.gz
Wind_Speed
9 9 8 8 7 7 6 6 4 4 4 3 1 0 2 3 4 5 6 7 8 9 9 8 8 8 8 8 8 8 9 9 9 9 9 8 8 8 8 7 7 7 7 7 6 6 6 5 5
9 9 8 7 7 6 5 5 4 4 4 3 2 1 1 2 4 5 6 8 9 9 9 9 9 9 9 9 9 8 8 8 8 8 8 8 7 7 7 7 6 6 6 6 6 5 5 5 5
9 8 8 7 6 4 3 4 4 4 4 3 2 1 1 2 3 5 5 7 9 10 10 10 10 9 9 9 9 9 8 8 8 8 8 7 7 6 6 6 5 5 6 5 5 5 4 4 4
9 8 7 7 6 4 3 4 5 4 4 4 4 3 3 3 3 5 6 6 8 11 11 11 10 10 10 10 9 9 8 8 8 7 7 6 6 5 5 5 5 5 5 5 4 4 4 4 4
8 8 8 7 6 5 4 4 5 5 5 6 5 5 4 4 3 4 6 7 8 11 12 12 12 12 11 11 10 9 9 8 7 7 6 6 5 5 4 4 4 4 4 4 4 3 3 3 3
8 8 7 6 7 6 6 5 5 5 7 7 6 5 5 4 4 4 5 7 9 11 13 13 13 13 12 12 11 10 9 8 8 7 6 5 5 4 4 4 4 3 3 3 3 3 3 3 2
9 8 7 7 7 7 7 7 7 7 8 9 8 7 6 5 5 5 6 7 9 11 13 14 14 14 14 13 12 11 10 9 8 7 5 4 4 4 3 3 3 2 2 2 3 3 2 2 2
9 8 7 7 7 8 7 7 7 8 9 10 9 8 8 6 6 6 6 7 9 11 13 15 15 15 15 14 14 13 11 10 8 7 5 4 4 3 3 3 2 2 1 2 2 2 2 2 1
10 8 7 8 7 8 8 8 9 9 10 10 10 9 9 8 7 7 7 8 9 11 13 15 16 17 17 16 15 15 13 11 9 8 6 4 4 3 3 3 2 2 1 1 1 1 1 0 1
10 9 9 8 8 8 9 9 10 10 11 11 10 10 10 9 9 9 8 9 10 11 13 16 17 17 18 18 17 16 15 12 10 9 7 5 4 3 3 3 3 2 1 1 1 1 0 0 1
11 10 9 9 10 10 10 10 11 11 12 12 11 11 11 11 10 9 9 9 10 12 13 16 18 19 20 20 19 18 16 14 12 10 8 6 5 4 4 3 3 2 2 1 0 1 1 1 1
12 11 10 10 11 11 11 11 11 12 12 13 12 12 12 11 11 10 10 10 10 12 14 15 18 19 21 21 21 19 18 15 13 11 9 7 6 5 4 4 4 3 2 1 1 1 1 0 1
12 12 11 12 12 11 11 11 12 13 13 13 13 13 13 12 11 11 11 10 10 12 14 16 18 21 22 22 22 21 20 17 15 13 10 9 7 6 5 5 4 4 3 2 1 1 1 0 1
13 12 12 12 13 13 12 12 13 14 14 13 14 14 14 13 12 11 10 11 12 12 14 17 18 21 23 23 23 22 21 19 17 14 12 10 9 8 7 6 6 5 3 2 2 1 1 1 1
13 12 12 13 14 14 13 13 14 13 14 14 15 15 15 13 12 11 11 12 13 14 15 17 19 20 24 25 24 23 21 20 18 16 14 12 10 9 8 7 7 6 4 3 2 2 1 1 1
13 12 12 15 14 14 13 12 15 14 14 15 16 16 15 14 13 13 14 15 14 15 17 17 18 21 24 26 26 25 23 21 19 17 16 14 11 10 9 8 8 7 5 4 2 2 2 1 1
13 13 13 16 15 14 13 13 15 15 15 16 17 16 15 15 14 14 14 15 15 16 18 18 18 20 23 26 26 26 24 23 20 18 17 15 13 11 11 10 9 7 6 5 4 3 2 1 1
14 14 14 15 16 14 14 14 15 16 16 17 17 16 15 14 14 14 14 14 15 15 18 18 18 20 22 25 26 26 25 23 22 20 18 16 14 12 11 10 9 8 7 6 5 4 3 2 2
15 14 15 16 16 15 15 15 16 16 17 17 17 15 14 13 13 14 13 14 14 16 17 19 18 19 21 24 25 26 26 24 22 20 19 17 15 14 12 11 10 9 8 7 6 5 4 3 2
16 15 15 16 16 14 14 14 15 16 16 15 15 13 12 12 12 12 11 12 13 15 17 18 19 19 20 23 24 25 26 26 24 22 20 19 17 15 13 12 11 10 9 8 8 6 5 4 3
16 16 16 16 15 14 13 13 14 14 14 13 14 13 12 11 10 10 9 9 10 12 14 17 18 19 20 22 24 24 26 26 25 23 21 20 18 17 15 14 13 12 11 10 9 7 6 5 4
16 16 16 15 14 14 13 11 12 14 14 13 14 13 11 11 9 9 8 8 9 11 12 16 17 18 20 22 23 23 24 24 24 23 22 21 20 18 17 16 15 13 12 11 10 9 8 7 6
17 16 16 15 13 12 13 11 11 13 14 13 12 12 11 10 9 8 7 7 8 9 11 15 16 17 19 21 22 23 24 24 24 24 22 22 21 20 18 17 16 15 14 13 12 11 10 9 8
17 16 15 14 13 13 13 12 10 13 14 13 12 11 10 9 8 7 7 7 7 8 9 12 14 15 17 20 22 23 24 24 23 23 22 23 22 21 20 18 17 16 15 15 14 12 11 11 10
17 15 13 12 12 13 14 12 11 12 12 12 11 9 8 8 7 7 6 7 6 6 8 10 12 14 15 19 21 23 24 24 23 22 22 23 23 22 21 19 18 17 17 16 15 14 13 12 12
17 16 15 13 12 13 14 12 11 12 11 11 10 8 8 7 7 7 7 6 6 6 7 9 11 12 14 18 20 22 23 24 22 21 22 22 23 22 22 20 19 19 18 17 17 16 15 14 14
18 18 17 16 14 13 13 12 12 12 11 10 9 8 7 7 6 6 6 5 5 5 6 8 9 11 13 17 20 21 22 22 21 21 21 21 21 22 22 21 20 20 19 18 18 17 16 16 16
18 18 18 17 15 13 12 12 11 12 11 10 9 8 7 7 6 6 4 4 5 5 6 7 8 10 12 15 18 20 21 22 21 20 20 20 20 21 22 22 21 21 20 20 19 18 18 18 19
20 20 19 18 18 15 12 12 13 12 12 11 10 8 8 8 7 6 6 4 4 5 6 7 9 10 12 14 15 16 18 19 19 19 19 20 20 20 21 22 22 20 20 20 20 20 20 21 21
21 22 21 20 19 18 15 14 14 13 14 13 11 10 8 8 8 8 7 5 5 5 5 7 8 9 11 13 14 15 16 17 18 20 20 20 20 20 21 21 21 20 21 21 21 21 22 23 23

GEFSSGP_500_meanwind_138.txt.gz
Wind_Speed
9 8 7 7 6 7 9 5 6 6 7 6 5 6 7 8 8 8 7 6 6 7 7 7 8 7 6 6 5 5 5 5 5 5 5 5 5 4 4 4 4 4 4 4 4 4 3 3 2
7 6 5 6 7 9 5 2 6 7 7 7 7 6 7 8 8 9 8 7 7 8 8 8 8 8 7 6 6 5 5 5 5 5 4 4 4 3 3 3 4 4 4 3 3 3 2 2 2
6 4 5 5 7 8 6 5 6 8 8 7 7 7 7 9 9 9 9 8 9 9 9 9 8 8 8 7 7 6 6 6 6 5 5 4 3 3 3 3 3 3 3 3 2 2 2 2 1
5 3 4 5 6 4 7 8 8 8 8 8 8 7 8 9 9 9 9 9 9 10 10 10 10 9 8 8 7 7 7 7 6 6 5 4 3 2 2 3 3 3 3 2 2 2 2 1 1
3 2 3 4 3 3 7 8 8 8 9 9 9 9 9 8 9 8 9 9 9 10 11 11 11 10 9 8 8 7 7 7 7 6 5 4 3 2 2 2 3 2 2 2 1 1 1 1 1
3 3 3 3 2 5 8 9 8 8 10 10 10 11 10 8 9 9 9 10 9 10 11 11 12 11 10 10 9 9 8 8 7 6 5 4 3 3 2 2 2 2 1 1 1 1 0 0 1
4 3 3 2 3 8 9 10 9 8 10 10 10 11 10 8 9 9 9 10 9 10 12 13 13 12 12 11 11 10 9 8 8 7 6 5 4 3 3 2 2 1 1 1 1 1 0 1 1
4 2 1 2 5 8 10 10 10 10 11 11 11 11 11 11 10 9 9 10 9 10 12 13 14 13 13 13 12 12 11 10 9 8 7 6 4 4 3 3 2 1 1 1 1 0 1 1 2
4 3 2 3 5 9 11 10 10 11 12 12 12 12 12 12 12 11 11 11 11 10 13 14 14 14 14 14 14 13 12 11 10 9 7 7 5 5 4 4 3 2 1 1 0 0 1 2 2
4 4 3 3 8 11 12 11 10 11 13 14 12 12 13 13 12 12 12 12 12 11 12 14 14 16 16 16 16 15 15 13 12 10 9 7 6 5 5 4 4 3 1 1 0 1 1 2 2
6 7 6 8 12 12 11 11 10 11 15 16 14 12 13 13 13 13 13 12 12 12 13 14 16 17 17 17 18 17 16 15 14 12 10 8 7 6 5 5 4 4 2 1 1 1 1 2 2
8 10 11 11 12 12 11 10 11 12 15 17 17 15 14 14 14 14 14 13 12 12 12 14 15 16 18 19 18 19 18 16 15 13 11 9 8 7 6 6 5 5 3 2 2 2 2 2 2
11 11 11 11 12 11 11 10 11 12 14 16 17 16 14 14 14 16 15 14 13 13 13 13 14 16 17 18 19 20 19 18 16 14 12 11 9 8 7 7 6 6 5 3 3 2 2 2 2
11 12 11 11 11 11 12 12 12 13 13 15 16 15 15 15 16 16 15 14 14 14 14 14 14 15 16 18 20 20 20 19 17 16 14 12 10 10 8 7 7 6 5 4 3 3 3 2 1
12 12 11 10 10 10 12 12 14 14 13 14 15 16 15 15 16 17 16 15 15 15 15 15 15 15 16 17 19 19 20 19 18 17 15 13 11 10 9 7 7 5 5 5 4 3 2 2 1
10 10 9 9 10 11 13 13 14 15 13 14 15 17 16 16 16 17 16 15 14 15 15 16 16 16 17 17 18 19 19 20 18 17 15 13 12 10 9 8 7 6 6 5 4 3 2 2 1
8 9 9 10 11 12 14 15 14 15 13 15 16 17 17 16 17 17 16 15 13 14 15 16 17 17 17 18 18 17 20 21 20 18 16 15 13 11 10 9 7 6 6 5 4 3 2 1 0
10 10 11 12 11 13 15 15 15 15 14 15 16 17 17 17 17 16 15 15 14 15 15 16 17 18 18 18 18 17 20 21 20 18 17 16 15 13 11 10 8 7 6 6 5 5 3 2 1
12 12 13 13 13 14 16 15 14 15 15 17 17 17 17 16 16 15 14 14 14 15 15 16 16 18 19 18 18 18 18 20 20 19 18 17 16 14 12 10 9 8 7 6 6 5 4 3 2
15 15 15 15 15 16 16 16 13 15 15 15 18 17 16 17 15 14 14 14 13 13 14 15 16 17 18 18 18 18 19 19 19 19 18 18 17 15 13 12 10 9 8 7 6 5 4 4 3
17 16 16 15 14 15 15 14 14 16 16 15 16 17 16 17 15 14 14 14 14 14 14 14 15 17 18 19 18 18 19 19 18 18 19 19 18 17 15 13 12 11 9 8 7 6 5 5 4
17 15 15 15 15 15 14 15 15 16 18 15 15 16 16 16 15 14 13 13 13 13 13 14 15 16 17 17 17 18 19 20 19 19 19 19 18 17 16 15 13 12 10 9 9 8 7 7 5
16 16 16 15 16 16 14 15 15 16 18 15 13 15 16 15 14 13 13 12 12 12 12 13 15 15 16 16 17 17 19 20 20 20 19 19 19 18 16 16 14 13 12 11 10 10 9 8 7
16 16 15 14 14 14 13 15 16 18 17 16 16 15 16 14 13 12 12 11 11 11 12 12 13 14 14 15 16 17 18 20 20 20 19 18 18 18 17 16 16 15 14 13 12 12 11 10 9
16 15 14 12 12 13 12 15 16 16 16 18 18 17 15 13 12 11 11 10 10 10 10 10 11 12 13 14 15 17 18 19 20 20 19 19 19 19 18 18 17 16 15 15 14 14 13 12 12
15 15 14 14 14 14 14 16 14 13 16 17 17 16 15 13 12 11 10 10 9 9 8 9 9 11 12 13 15 16 18 19 20 20 19 19 19 19 19 18 18 17 17 16 16 15 15 14 14
16 15 14 16 16 17 17 16 12 13 16 15 16 15 14 13 12 10 10 9 9 8 8 8 9 9 10 11 13 15 17 18 19 19 19 19 18 18 19 19 19 19 18 18 18 17 16 15 16
17 16 16 18 19 18 17 16 16 17 16 15 15 15 15 14 13 10 9 9 9 8 7 7 7 8 9 10 12 13 15 16 18 19 18 18 18 18 19 19 20 20 19 19 18 18 17 17 17
17 18 19 20 19 19 18 19 20 18 17 16 15 15 15 14 13 11 9 9 9 9 7 7 7 8 9 10 10 11 13 15 17 18 19 19 19 19 19 19 20 20 20 20 19 19 19 18 18
17 19 20 22 21 21 20 20 20 18 17 16 16 15 16 15 14 11 9 9 9 9 8 7 7 7 7 8 9 10 11 14 16 18 19 20 19 19 20 20 20 21 21 21 20 20 20 20 20

GEFSSGP_500_meanwind_144.txt.gz
Wind_Speed
4 3 4 5 4 4 6 7 9 9 9 9 9 9 8 6 5 4 2 0 1 1 2 3 3 3 3 3 2 1 1 1 1 1 1 1 2 2 2 2 3 2 2 2 2 2 3 3 3
3 3 3 3 3 4 6 7 8 9 9 9 9 8 8 7 6 4 3 0 1 1 2 3 4 4 4 3 2 1 1 1 2 1 1 1 2 2 2 2 2 2 2 2 2 2 2 2 2
2 1 1 1 1 3 5 7 8 10 10 10 9 8 7 6 6 5 3 1 1 2 3 4 4 4 4 4 3 2 2 1 2 2 2 2 2 2 2 2 2 2 2 2 2 2 2 2 2
2 1 1 2 1 2 5 6 8 11 11 11 10 9 7 6 6 5 3 2 1 2 3 5 5 5 5 5 4 3 2 2 2 2 2 2 2 2 2 2 2 2 2 2 2 2 2 2 2
3 3 3 3 2 1 4 5 8 10 10 11 11 10 9 7 6 5 4 2 2 2 3 5 6 6 7 6 5 4 3 2 2 2 2 2 3 3 3 2 2 2 2 2 2 3 2 2 2
4 4 4 4 3 1 1 4 7 10 12 12 11 10 9 7 6 6 4 3 3 2 3 5 7 8 8 8 7 6 4 3 3 3 2 2 3 3 3 3 2 2 3 3 3 3 3 3 2
6 5 5 5 4 3 2 4 7 10 12 13 11 10 9 8 7 5 5 4 4 4 5 6 7 8 9 8 8 7 6 5 4 3 3 2 3 4 4 3 3 3 3 3 3 3 3 3 2
7 6 6 6 4 2 3 6 9 13 14 15 12 10 9 8 7 6 5 5 5 5 6 6 7 9 9 9 9 8 7 6 5 4 3 3 3 4 4 4 3 3 3 3 3 3 3 2 2
8 8 7 5 4 3 4 7 8 12 15 15 14 12 10 9 8 7 6 6 6 6 6 6 8 10 10 10 10 10 8 7 6 6 4 4 3 4 4 4 4 3 3 3 3 3 3 2 2
9 9 8 7 6 5 6 9 10 12 14 15 14 12 11 11 10 7 5 6 6 6 6 7 8 10 11 11 11 11 10 9 8 7 6 4 4 4 4 4 4 3 3 3 3 3 3 2 2
11 11 10 10 8 7 7 9 12 14 14 14 13 13 13 12 10 8 6 6 7 7 7 8 9 10 11 12 12 12 12 11 10 9 7 6 5 4 4 4 3 3 2 2 2 3 3 3 2
13 13 13 12 11 10 10 11 13 14 13 15 15 13 13 12 11 9 7 7 8 7 7 8 9 10 11 12 12 13 12 12 11 10 9 8 6 5 5 4 4 4 3 2 3 3 2 3 2
14 15 14 13 12 12 12 12 13 14 14 14 14 14 14 12 10 9 8 7 7 7 8 9 8 9 10 11 12 13 14 13 12 11 11 10 8 7 6 5 4 4 4 3 2 2 2 3 2
15 15 15 14 14 14 13 13 14 14 14 14 14 15 15 13 10 9 8 8 7 6 8 9 9 10 11 11 12 14 14 14 13 12 12 11 10 8 7 6 5 5 4 3 3 3 3 3 2
16 15 14 14 14 14 14 13 13 14 14 15 15 15 14 11 10 10 9 8 7 6 7 8 10 10 12 12 12 13 15 15 14 13 13 13 11 10 8 7 6 5 5 4 3 3 3 2 1
15 14 13 13 12 13 14 12 12 13 13 14 14 15 13 11 10 10 10 10 8 7 8 9 10 11 12 12 12 13 15 15 15 14 15 14 13 11 10 9 7 6 6 5 4 3 3 2 1
15 14 13 13 11 12 14 13 12 11 12 13 15 15 13 11 12 11 11 10 9 8 8 9 10 11 11 12 12 12 13 15 15 15 15 16 14 13 11 9 8 8 7 6 5 4 4 2 2
16 16 15 13 11 12 13 12 12 12 13 14 15 14 14 13 11 11 10 10 9 9 9 9 10 12 12 13 13 13 13 14 15 15 16 16 16 14 12 11 10 9 8 7 6 5 5 4 3
18 18 16 13 13 13 12 12 12 14 14 14 14 14 15 12 11 11 10 9 10 10 10 10 11 12 12 13 13 13 13 13 14 16 16 17 17 15 14 13 12 10 9 8 7 6 5 5 4
19 18 15 14 13 14 13 13 12 14 13 14 15 15 14 12 11 12 11 10 10 11 11 12 13 13 13 14 15 14 14 14 14 16 17 17 17 16 15 14 13 12 11 9 8 7 7 6 5
19 17 16 14 14 14 14 13 12 13 14 14 14 14 13 12 11 11 11 11 11 12 12 11 12 13 14 15 15 14 14 14 15 15 16 17 17 17 16 16 14 13 12 11 10 9 8 7 6
18 16 15 15 15 14 15 15 13 13 13 14 14 13 12 12 12 11 10 11 11 11 11 11 12 12 14 14 15 15 15 16 16 17 18 18 18 17 17 16 16 15 14 13 11 10 9 8 7
17 16 15 16 16 16 16 17 15 15 14 15 13 12 11 12 11 11 11 10 11 11 10 11 11 12 13 14 15 15 15 16 18 19 19 19 18 18 17 16 16 16 15 14 13 12 11 10 9
17 17 17 18 18 17 17 18 16 16 15 15 13 11 11 10 10 9 9 10 10 9 9 10 11 11 12 13 14 15 16 16 17 19 19 19 19 18 18 17 17 17 17 16 15 14 13 12 11
18 18 19 19 18 16 16 18 15 15 14 15 13 10 9 10 10 8 9 10 9 9 8 9 10 11 12 12 13 15 16 16 17 19 20 20 19 19 18 18 18 18 18 18 17 15 14 14 13
18 18 18 18 17 15 15 16 15 15 14 13 12 10 9 9 8 8 9 9 9 8 8 8 9 10 11 11 12 13 15 16 17 18 20 22 21 20 19 19 20 20 20 19 18 17 16 16 16
16 17 17 18 18 16 15 14 13 13 14 14 12 10 9 9 8 8 8 9 8 8 8 8 8 8 9 9 10 11 13 15 16 16 18 21 22 21 20 20 21 20 20 20 19 19 18 17 17
15 16 18 19 19 18 16 15 14 15 14 11 11 10 9 9 8 8 9 9 8 8 8 7 7 7 9 10 10 12 13 14 15 16 18 20 22 22 21 21 21 21 21 20 20 20 20 19 19
17 18 19 19 19 19 18 17 16 16 15 12 10 10 9 9 8 9 9 9 9 9 9 8 7 7 8 8 10 11 12 14 15 16 18 20 21 22 22 21 21 21 22 22 22 22 22 21 20
19 18 20 21 20 20 21 20 18 17 16 14 12 10 9 10 10 9 9 9 9 9 10 9 8 8 8 8 8 10 12 14 15 16 17 20 21 22 22 22 22 22 23 23 24 24 24 23 22